Voltar ao catálogo

DELTA 1 DEB

AtivoSSO
NORAD 21320·DEBRIS·🇺🇸 United States

Lançado Jun 12, 1975 de Vandenberg Space Force Base

Loading…

Próximas Passagens (próximas 24 horas)

TLE

AtualizadoSource: Space-Track

Época: Sep 14, 2026, 14:54 UTC

1 21320U 75052AN  26257.62131883  .00000242  00000-0  28985-3 0  9994
2 21320  99.4919 136.0655 0126447 232.6497 154.9160 13.73803080767845

Acompanhe DELTA 1 DEB em tempo real com AllMySat

Download on the App Store